Venez Explorer Les Airs Avec Nous!

Que ce soit pour un vol de découverte, pour apprendre l’arts du pilotage ou pour voyager, venez nous rejoindre.

Information en heures locale pour LFDL
21 January 2021

Metar
LFBI 210200Z AUTO 20020KT 4800 RA BR OVC007/// ///TCU 10/09 Q0997 TEMPO NSW BKN007 BECMG 23010KT

Lever du soleil : 08:37

Coucher du soleil : 17:44

Actualité

Nous sommes heureux d’accueillir un ULM Savannah au sein de notre flotte. Grace à cet appareil, vous pourrez découvrir une …

Bonjour tout le monde !

Bienvenue à tous, l’ Aéroclub Loudunais vous accueille sur son nouveau site internet.

Newsletter Sign Up

Praesent libero sed cursus anted dapibus diam